Погода в Дербенте

Погода в Дербенте : погода сейчас, прогноз погоды и архив. Всё, что Вы хотите узнать о погоде в Дербенте!

Поиск расширенной информации на нашем сайте:

Другие новости

Новости СМИ2

Главная страница сайта

Новости сайта

03.07.2017

Напоминаем, что на нашем специализированном сайте Метеоцентр.Азия вы можете получить высокодетализированные автоматические прогнозы погоды по пунктам России, СНГ и мира в авиационном формате (включающие направление и скорость ветра, видимость, явления погоды, количество и форму облачности, нижнюю и верхнюю границу облачности).


Погода в Дербенте - сегодня

Время (UTC), дата Ветер
(°,м/с) 
Видим.   Явления Облачность Т
(°С)
Тd
(°С)
f(%) Тe
(°С)
Pmin
(гПа)
dP
(гПа)
Po
(мм)
O2
(г/м3)
Тmin Tmax R s Состояние
почвы
00 17.04.18 280 (З) 10 км    ясно 
+5.5 -0.7 64 +6  1023.9  -0.7  770  304           
03 17.04.18 тихо ()   20000 м    3/0 верхняя 
[Ci fib]
+5.5 +0.3 69 +6  1023.7  -0.3  769  304  +5        влажная 
06 17.04.18 360 (С) 20000 м    ясно 
+11 +5.2 67 +11  1024.8  1.1  770  298           
09 17.04.18 090 (В) 20000 м    ясно 
+11.7 +7.2 74 +12  1024.5  -0.3  770  296           
12 17.04.18 090 (В) 20000 м    ясно 
+11.6 +7 73 +12  1024.1  -0.4  770  296           
18 17.04.18 тихо ()   10 км    8/8 600 м 
[Sc]
+8.7 +6.8 88 +9  1024.8  1.2  770  300           
21 17.04.18 тихо ()   10 км    8/8 600 м 
[Sc]
+7.2 +5.9 91 +7  1024.8  770  301           
00 18.04.18 тихо ()   10 км    8/0 средняя 
[Ac trans]
+6.6 +4.3 85 +7  1024.6  -0.1  770  302           
06 18.04.18 060 (СВ) 20000 м    ясно 
+10.9 +6.6 75 +11  1025.8  0.7  771  298           
09 18.04.18 110 (В) 20000 м    ясно 
+12.8 +7.9 72 +13  1025.3  -0.5  771  295           
12 18.04.18 120 (ЮВ) 20000 м    4/0 средняя 
[Ac trans]
+11.3 +7.4 77 +11  1023.9  -1.4  770  297           
18 18.04.18 150 (ЮВ) 10 км    ясно 
+9.7 +7.3 85 +9  1020.5  -1.9  767  297           
21 18.04.18 150 (ЮВ) 10 км    ясно 
+8.3 +6.4 88 +9  1017.7  -2.7  765  298           
00 19.04.18 340 (С) 10 км    ясно 
+7.6 +5.7 88 +9  1015.1  -2.7  763  298           
06 19.04.18 010 (С) 20000 м    9/4 600 м средняя, верхняя 
[Sc|Ac trans|Ci fib]
+11.2 +7.9 80 +11  1013.2  -1  762  293           
09 19.04.18 360 (С) 20000 м    4/0 верхняя 
[Ci fib]
+16.7 +9.3 62 +17  1011.7  -1.6  760  287           
12 19.04.18 050 (СВ) 20000 м    3/0 верхняя 
[Ci fib]
+14.6 +8.3 66 +15  1010.6  -1  760  289           
18 19.04.18 тихо ()   10 км    ясно 
+12.5 +6.3 66 +13  1008.4  -1.3  758  291           
21 19.04.18 130 (ЮВ) 10 км    ясно 
+10.7 +6.8 77 +11  1005.6  -2.8  756  292           
00 20.04.18 310 (СЗ) 5{11}  10 км    ясно 
+11.9 +8.4 79 +11  1007.7  757  291           
06 20.04.18 130 (ЮВ) 20000 м    10/10 600 м 
[Sc]
+14.2 +7.9 66 +15  1007.5  -0.5  757  289           
09 20.04.18 130 (ЮВ) 20000 м    10/10 600 м 
[Sc]
+13 +8.4 74 +14  1006.8  -0.6  757  290           
12 20.04.18 120 (ЮВ) 20000 м    10/10 600 м 
[Sc]
+13.1 +7.4 68 +14  1006.5  -0.4  756  290           
18 20.04.18 020 (С) 10 км    9/8 600 м средняя 
[Sc|Ac trans]
+12.8 +8 73 +14  1007.8  0.3  758  290           
21 20.04.18 300 (СЗ) 10 км    10/10 600 м 
[Sc]
+13.7 +7.1 64 +14  1008.8  0.9  758  290           
Время (UTC), дата Ветер
(°,м/с) 
Видим.   Явления Облачность Т
(°С)
Тd
(°С)
f(%) Тe
(°С)
Pmin
(гПа)
dP
(гПа)
Po
(мм)
O2
(г/м3)
Тmin Tmax R s Состояние
почвы

Для получения пояснительной информации подведите курсор к названию столбца.

ПОГОДА в Дербенте - архив

Всё, что Вы хотите узнать о погоде в Дербенте - удобно и подробно!

Выберите нужную дату (начиная с 1 января 2015* года) и нажмите кнопку "Найти".
Будут отображены архивные сводки погоды по пункту Дербент, начиная с указанной даты.


Отображать данные в формате CSV (для использования в таблицах Excel)


Внимание! Наш архив погоды предназначен исключительно для личного некоммерческого использования в познавательных целях. Если Вам необходимы официальные справки о состоянии погоды (для производственных, юридических, коммерческих и т.п. целей), обращайтесь в органы Росгидромета.

*Примечание: данная дата относится к архиву по метеостанциям СССР (Россия, СНГ, Балтия).
Архив по метеостанциям Зарубежной Европы и Азии (кроме Китая) хранится 10 дней, по другим регионам земного шара (Китай, Африка, Америка, Австралия, Океания) - 1 день.

Дербент - район местоположения метеостанции


Название, широта, долгота, высота метеостанции:
Дербент 42.1°ш. 48.3°д. -19 м над ур. моря [Российская Федерация]

Дополнительная информация

В oтличие oт бoльшинства пoгoдных сайтoв мы публикуем пoдрoбную метеoинфoрмацию в детальнoм прoфессиoнальнoм фoрмате.

Характеристики температуры и влажнoсти вoздуха измеряются на высoте 2 м в тени вдали oт зданий и деревьев.
Скoрoсть ветра измеряется на высoте 10 м (на урoвне рoста челoвека скoрoсть ветра ниже в 1.5-2 раза). Если метеoстанция нахoдится в гoрoде или в лесу, тo скoрoсть ветра занижена на 2-4 м/с пo сравнению с oткрытым местoм. Скoрoсть ветра над акватoриями крупных рек и oзёр, а также на вершинах хoлмoв на 2-5 м/с выше, чем в oбычных услoвиях.
Атмoсфернoе давление в разных тoчках местнoсти мoжет значительнo oтличаться oт давления на метеoстанции, в зависимoсти oт услoвий рельефа (при пoдъёме на 10 м давление пoнижается примернo на 1 мм рт.ст.).